User: anonymous   Login
Location: Unspecified
(0.0000°N, 0.0000°E)
Time: 23:17:35
(UTC+00:00)
Language:

STARLINK-2217 - Orbit

View from above orbital plane
View from above orbital plane
View from above satellite
View from above satellite

Ground track
Ground track

The orbit is defined by the following mean orbital elements,

1 48568U          26145.37972713 +.00000000 +00000-0 +54112-4 0 00008
2 48568  53.1607 130.4529 0001283  94.0088 266.1060 15.31692640    00
Epoch (UTC): 25 May 2026 09:06:48
Eccentricity: 0.0001283
inclination: 53.1607°
perigee height: 470 km
apogee height: 472 km
right ascension of ascending node: 130.4529°
argument of perigee: 94.0088°
revolutions per day: 15.31692640
mean anomaly at epoch: 266.1060°

The dashed part of the orbit path shows where the satellite is in the earth's shadow,  

DLR